Powrót do katalogu

METEOR 2-4

AktywnyPogodaPO
NORAD 11288·PAYLOAD·🇷🇺 Russia

Wystrzelony Mar 1, 1979 z Plesetsk Cosmodrome

Loading…

Następne Przeloty (najbliższe 24 godziny)

TLE

ŚwieżeSource: Space-Track

Epoka: Sep 14, 2026, 10:00 UTC

1 11288U 79021A   26257.41682401 -.00000060  00000-0 -39509-4 0  9995
2 11288  81.2156  50.6163 0024293  44.4453 315.8662 14.12340394447614

Śledź METEOR 2-4 w czasie rzeczywistym z AllMySat

Download on the App Store